When you browse on this site, cookies collect data to enhance your experience and personalize the content and advertising you see.
Visit our Privacy Policy to learn more. By continuing to use the site, you agree to this use of cookies and data.
  • en France
  • Liste des pays
  • À 7 jours
  • Température de l'eau
  • Carte météo
  • Widgets météo
  • user-avatar
    Se connecter

    Météo par heure à Maints

    Ce jour, 14 Décembre, Samedi

    Heure Température Précipitation Vent Pression Humidité
    00:00 +3°C° 0 mm 5 m/s 733 mmHg 83%
    01:00 +4°C° 0 mm 4 m/s 733 mmHg 85%
    02:00 +4°C° 0.2 mm 4 m/s 732 mmHg 86%
    03:00 +3°C° 0.2 mm 5 m/s 731 mmHg 86%
    04:00 +3°C° 0.2 mm 5 m/s 730 mmHg 87%
    05:00 +3°C° 0.9 mm 5 m/s 730 mmHg 88%
    06:00 +5°C° 0.9 mm 5 m/s 729 mmHg 88%
    07:00 +6°C° 0.9 mm 5 m/s 729 mmHg 88%
    08:00 +5°C° 0.4 mm 6 m/s 730 mmHg 83%
    09:00 +5°C° 0.4 mm 7 m/s 732 mmHg 77%
    10:00 +5°C° 0.4 mm 8 m/s 734 mmHg 72%
    11:00 +5°C° 0.1 mm 8 m/s 735 mmHg 67%
    12:00 +6°C° 0.1 mm 8 m/s 737 mmHg 61%
    13:00 +6°C° 0.1 mm 8 m/s 738 mmHg 56%
    14:00 +6°C° 0.2 mm 7 m/s 738 mmHg 64%
    15:00 +5°C° 0.2 mm 6 m/s 739 mmHg 73%
    16:00 +5°C° 0.2 mm 6 m/s 739 mmHg 81%
    17:00 +5°C° 0.2 mm 6 m/s 740 mmHg 80%
    18:00 +5°C° 0.2 mm 6 m/s 740 mmHg 78%
    19:00 +5°C° 0.2 mm 6 m/s 740 mmHg 77%
    20:00 +6°C° 0 mm 5 m/s 741 mmHg 77%
    21:00 +6°C° 0 mm 5 m/s 742 mmHg 78%
    22:00 +5°C° 0 mm 4 m/s 743 mmHg 78%
    23:00 +5°C° 0 mm 3 m/s 742 mmHg 81%

    Demain, 15 Décembre, Dimanche

    Heure Température Précipitation Vent Pression Humidité
    00:00 +5°C° 0 mm 3 m/s 742 mmHg 83%
    01:00 +5°C° 0 mm 2 m/s 742 mmHg 86%
    02:00 +5°C° 0.2 mm 3 m/s 741 mmHg 88%
    03:00 +7°C° 0.2 mm 3 m/s 740 mmHg 91%
    04:00 +6°C° 0.2 mm 4 m/s 740 mmHg 94%
    05:00 +7°C° 1.1 mm 4 m/s 739 mmHg 93%
    06:00 +7°C° 1.1 mm 4 m/s 739 mmHg 92%
    07:00 +8°C° 1.1 mm 4 m/s 739 mmHg 92%
    08:00 +8°C° 0.8 mm 4 m/s 740 mmHg 89%
    09:00 +8°C° 0.8 mm 4 m/s 741 mmHg 87%
    10:00 +8°C° 0.8 mm 4 m/s 742 mmHg 85%
    11:00 +8°C° 0.1 mm 4 m/s 743 mmHg 80%
    12:00 +8°C° 0.1 mm 4 m/s 743 mmHg 75%
    13:00 +7°C° 0.1 mm 4 m/s 744 mmHg 71%
    14:00 +7°C° 0 mm 4 m/s 744 mmHg 72%
    15:00 +8°C° 0 mm 3 m/s 745 mmHg 73%
    16:00 +8°C° 0 mm 3 m/s 745 mmHg 74%
    17:00 +8°C° 0 mm 3 m/s 746 mmHg 76%
    18:00 +7°C° 0 mm 3 m/s 746 mmHg 78%
    19:00 +7°C° 0 mm 3 m/s 746 mmHg 80%
    20:00 +7°C° 0 mm 2 m/s 747 mmHg 83%
    21:00 +7°C° 0 mm 2 m/s 747 mmHg 85%
    22:00 +7°C° 0 mm 2 m/s 747 mmHg 88%
    23:00 +7°C° 0.1 mm 2 m/s 747 mmHg 90%

    Après-demain, 16 Décembre, Lundi

    Heure Température Précipitation Vent Pression Humidité
    00:00 +8°C° 0.1 mm 1 m/s 747 mmHg 91%
    01:00 +8°C° 0.1 mm 1 m/s 747 mmHg 93%
    02:00 +8°C° 0.5 mm 1 m/s 747 mmHg 94%
    03:00 +8°C° 0.5 mm 1 m/s 747 mmHg 95%
    04:00 +8°C° 0.5 mm 1 m/s 747 mmHg 96%
    05:00 +8°C° 0.8 mm 1 m/s 747 mmHg 97%
    06:00 +8°C° 0.8 mm 1 m/s 746 mmHg 97%
    07:00 +8°C° 0.8 mm 1 m/s 746 mmHg 98%
    08:00 +9°C° 0.4 mm 1 m/s 746 mmHg 97%
    09:00 +8°C° 0.4 mm 2 m/s 746 mmHg 95%
    10:00 +8°C° 0.4 mm 2 m/s 746 mmHg 94%
    11:00 +9°C° 0 mm 2 m/s 746 mmHg 89%
    12:00 +10°C° 0 mm 2 m/s 746 mmHg 83%
    13:00 +12°C° 0 mm 2 m/s 745 mmHg 78%
    14:00 +10°C° 0 mm 2 m/s 745 mmHg 78%
    15:00 +10°C° 0 mm 2 m/s 745 mmHg 79%
    16:00 +11°C° 0 mm 1 m/s 744 mmHg 79%
    17:00 +10°C° 0 mm 1 m/s 744 mmHg 79%
    18:00 +10°C° 0 mm 1 m/s 744 mmHg 79%
    19:00 +9°C° 0 mm 1 m/s 744 mmHg 79%
    20:00 +9°C° 0 mm 1 m/s 744 mmHg 79%
    21:00 +9°C° 0 mm 1 m/s 744 mmHg 79%
    22:00 +9°C° 0 mm 1 m/s 744 mmHg 79%
    23:00 +8°C° 0 mm 1 m/s 743 mmHg 80%

    17 Décembre, Mardi

    Heure Température Précipitation Vent Pression Humidité
    00:00 +8°C° 0 mm 1 m/s 743 mmHg 82%
    01:00 +7°C° 0 mm 1 m/s 743 mmHg 83%
    02:00 +8°C° 0 mm 1 m/s 743 mmHg 83%
    03:00 +8°C° 0 mm 1 m/s 743 mmHg 82%
    04:00 +8°C° 0 mm 1 m/s 744 mmHg 81%
    05:00 +8°C° 0 mm 1 m/s 744 mmHg 82%
    06:00 +8°C° 0 mm 1 m/s 744 mmHg 82%
    07:00 +8°C° 0 mm 1 m/s 744 mmHg 82%
    08:00 +8°C° 0 mm 1 m/s 745 mmHg 81%
    09:00 +8°C° 0 mm 1 m/s 745 mmHg 80%
    10:00 +9°C° 0 mm 1 m/s 745 mmHg 79%
    11:00 +9°C° 0 mm 1 m/s 745 mmHg 77%
    12:00 +10°C° 0 mm 1 m/s 745 mmHg 75%
    13:00 +11°C° 0 mm 1 m/s 745 mmHg 73%
    14:00 +10°C° 0 mm 1 m/s 745 mmHg 75%
    15:00 +10°C° 0 mm 1 m/s 745 mmHg 77%
    16:00 +10°C° 0 mm 1 m/s 745 mmHg 78%
    17:00 +9°C° 0 mm 1 m/s 745 mmHg 79%
    18:00 +9°C° 0 mm 1 m/s 746 mmHg 80%
    19:00 +9°C° 0 mm 1 m/s 746 mmHg 80%
    20:00 +9°C° 0 mm 1 m/s 746 mmHg 82%
    21:00 +8°C° 0 mm 1 m/s 746 mmHg 83%
    22:00 +8°C° 0 mm 1 m/s 746 mmHg 84%
    23:00 +8°C° 0 mm 1 m/s 746 mmHg 84%

    18 Décembre, Mercredi

    Heure Température Précipitation Vent Pression Humidité
    00:00 +8°C° 0 mm 1 m/s 747 mmHg 84%
    01:00 +8°C° 0 mm 1 m/s 747 mmHg 84%
    02:00 +9°C° 0 mm 1 m/s 747 mmHg 84%
    03:00 +9°C° 0 mm 1 m/s 748 mmHg 85%
    04:00 +9°C° 0 mm 1 m/s 748 mmHg 85%
    05:00 +9°C° 0 mm 1 m/s 748 mmHg 86%
    06:00 +8°C° 0 mm 1 m/s 748 mmHg 88%
    07:00 +8°C° 0 mm 1 m/s 749 mmHg 89%
    08:00 +8°C° 0 mm 1 m/s 749 mmHg 89%
    09:00 +9°C° 0 mm 1 m/s 749 mmHg 89%
    10:00 +8°C° 0 mm 0 m/s 750 mmHg 89%
    11:00 +8°C° 0 mm 0 m/s 750 mmHg 89%
    12:00 +8°C° 0 mm 0 m/s 750 mmHg 88%
    13:00 +9°C° 0 mm 0 m/s 750 mmHg 88%
    14:00 +8°C° 0 mm 0 m/s 750 mmHg 89%
    15:00 +8°C° 0 mm 0 m/s 750 mmHg 90%
    16:00 +8°C° 0 mm 0 m/s 750 mmHg 90%
    17:00 +8°C° 0.2 mm 0 m/s 750 mmHg 91%
    18:00 +8°C° 0.2 mm 0 m/s 750 mmHg 92%
    19:00 +8°C° 0.2 mm 0 m/s 750 mmHg 92%
    20:00 +9°C° 0.1 mm 1 m/s 750 mmHg 92%
    21:00 +9°C° 0.1 mm 1 m/s 750 mmHg 93%
    22:00 +9°C° 0.1 mm 1 m/s 750 mmHg 93%
    23:00 +9°C° 0.1 mm 1 m/s 749 mmHg 93%

    19 Décembre, Jeudi

    Heure Température Précipitation Vent Pression Humidité
    00:00 +8°C° 0.1 mm 1 m/s 749 mmHg 94%
    01:00 +8°C° 0.1 mm 1 m/s 749 mmHg 94%
    02:00 +8°C° 0 mm 1 m/s 748 mmHg 93%
    03:00 +8°C° 0 mm 1 m/s 748 mmHg 93%
    04:00 +8°C° 0 mm 1 m/s 748 mmHg 92%
    05:00 +7°C° 0 mm 1 m/s 748 mmHg 92%
    06:00 +7°C° 0 mm 1 m/s 747 mmHg 92%
    07:00 +7°C° 0 mm 1 m/s 747 mmHg 91%
    08:00 +7°C° 0 mm 1 m/s 747 mmHg 91%
    09:00 +7°C° 0 mm 1 m/s 747 mmHg 90%
    10:00 +7°C° 0 mm 1 m/s 747 mmHg 89%
    11:00 +8°C° 0 mm 1 m/s 747 mmHg 87%
    12:00 +8°C° 0 mm 1 m/s 746 mmHg 84%
    13:00 +9°C° 0 mm 1 m/s 746 mmHg 82%
    14:00 +8°C° 0 mm 1 m/s 746 mmHg 83%
    15:00 +8°C° 0 mm 1 m/s 745 mmHg 85%
    16:00 +8°C° 0 mm 1 m/s 745 mmHg 86%
    17:00 +7°C° 0 mm 1 m/s 744 mmHg 88%
    18:00 +7°C° 0 mm 1 m/s 744 mmHg 89%
    19:00 +7°C° 0 mm 1 m/s 744 mmHg 91%
    20:00 +6°C° 0 mm 1 m/s 743 mmHg 92%
    21:00 +5°C° 0 mm 2 m/s 743 mmHg 92%
    22:00 +5°C° 0 mm 2 m/s 742 mmHg 93%
    23:00 +5°C° 0 mm 2 m/s 742 mmHg 93%
    Voir plus